{"data":{"norad_id":65129,"epoch":"2026-05-24T21:01:15.108384Z","epoch_age_seconds":82180,"freshness":"FRESH","line1":"1 65129U 25170L   26144.87586931  .00001411  00000+0  19523-3 0  9991","line2":"2 65129  49.9847 281.8675 0006801   0.7648 359.3299 14.83897558 42973","mean_motion":14.83897558,"eccentricity":0.0006801,"inclination_deg":49.9847,"raan_deg":281.8675,"arg_perigee_deg":0.7648,"mean_anomaly_deg":359.3299,"bstar":0.00019523,"rev_number":4297,"period_min":97.041739319312,"perigee_km":612.29094878544,"apogee_km":621.80579993164,"semimajor_km":6995.1853743585,"source":"CELESTRAK","updated_at":"2026-05-25T13:38:05.140066Z"}}